Showing default

ORBCOMM FM 109, 40086

Orbit data source: Space-Track

ORBCOMM FM 109, 40086 is a payload satellite owned by Orbcomm (US) in LEO that was launched on Mon, 14 Jul 2014 UTC via an FALCON 9 launch vehicle from the Air Force Eastern Test Range (AFETR). Payload-class satellites include a variety of spacecraft equipped with specific instruments for various scientific and technological missions. These include communications satellites like Starlink; space stations such as the ISS; scientific satellites like the Hubble; Earth observation satellites from companies like Planet Labs, Umbra, and HawkEye 360; GPS; miniature CubeSats for education and research; and military/defense satellites.

Loading next visibility...
Identifier
40086, 2014-040A
Orbit
LEO
Country
Flag of USUS / ORB
Related business
Manufacturer
SNC Louisville
Mission
Partially operational Commercial Communications
Bus & Motor
SN-100A, Unknown motor
Mass
172 kg wet, 158 kg dry
Launch date (UTC)
2014-07-14 (12 years ago)
Launch vehicle
FALCON 9
Launch site
Air Force Eastern Test Range (AFETR)
Object type
Payload
Rocket body
Debris
Shape & HBR
Box + 1 Pan + 1 Ant, 5.3 m
Radar Cross Section
2.222 m², Medium (>0.1 m² and < 1m²)

Expand to show TLE details & history
Last TLE update: 15 hours ago

TLE from 15 hours ago
0 ORBCOMM FM 109
1 40086U 14040A   26262.81400723  .00000200  00000-0  78402-4 0  9997
2 40086  47.0047   4.0705 0002153 277.9096  82.1545 14.58921695648169
Epoch: 2026-09-19T19:32Z
TLE epoch observation values (Epoch: 2026-09-19T19:32:10.224Z)
Latitude
-0.00006°
Longitude
72.3107°
Altitude
696.666 km
Speed
7.509 km/s
True Right ascension
00h 16m 16s
True Declination
0° 00' 00"
Sunlit
Object was in full shadow at epoch
Visualization orbit readout
Latitude
Unknown
Longitude
Unknown
Altitude
Unknown
Speed
Unknown
Apparent Right ascension
Unknown
Apparent Declination
Unknown
Sunlit
N/A
Visualization observer readout
Local Sidereal Time
03:56:03
Azimuth
Unknown
Elevation
Unknown
Doppler factor
Unknown
Orbital elements
Apogee altitude
699.416 km
Perigee altitude
696.369 km
Semi-major axis
7,076.029 km
Eccentricity
0.00022
Inclination
47.0047°
RAAN
4.0705°
Arg. of periapsis
277.9096°
True anomaly
82.17894°
Mean anomaly
82.1545°
Eccentric anomaly
82.16672°
Mean motion
3.64635 °/min
Orbital period
98.73 mins
BSTAR
0.000078402
Loading maneuver chart data...
Computing Atmospheric mass density...
Loading historical data...
Loading historical data...
Loading historical data...
Loading historical data...
Loading historical data...
Loading historical data...
Loading historical data...

Documentation

Showing up to 5 results
|